Location: Unspecified
(54.1780°N, 0.0000°E)
Time: 07:40:17
(UTC+00:00)

Transit 2A - Pass Details

Date: 25 June 2019
Orbit: 594 x 965 km, 66.7° (Epoch: 17 July)

Event Time Altitude Azimuth Distance (km) Brightness Sun altitude
Rises 02:10:14 0° 258° (WSW) 3,648 9.1 -7.7°
Reaches altitude 10° 02:13:04 10° 267° (W) 2,692 8.5 -7.5°
Maximum altitude 02:18:51 36° 333° (NNW) 1,431 7.8 -7.1°
Drops below altitude 10° 02:24:22 10° 39° (NE) 2,554 10.5 -6.6°
Sets 02:27:00 0° 48° (NE) 3,440 11.2 -6.4°
